Regional Weather Roundup
Issued by NWS

Home | Current Version | Previous Version | Graphics & Text | Print | Product List | Glossary On
Versions: 1 2 3 4 5 6 7 8 9 10 11 12 13 14 15 16 17 18 19 20 21 22 23 24 25 26 27 28 29 30 31 32 33 34 35 36 37 38 39 40 41 42 43 44 45 46 47 48 49 50
000
ASUS43 KMPX 240010
RWRMN
WEATHER ROUNDUP FOR MINNESOTA
NATIONAL WEATHER SERVICE TWIN CITIES/CHANHASSEN MN
700 PM CDT WED AUG 23 2017


NOTE: "FAIR" INDICATES FEW OR NO CLOUDS BELOW 12,000 FEET WITH NO
SIGNIFICANT WEATHER AND/OR OBSTRUCTIONS TO VISIBILITY. N/A MEANS
CURRENT SKY AND/OR WEATHER CONDITIONS ARE NOT AVAILABLE.

MNZ060>063-068>070-240100-
   Twin Cities Metro

CITY           SKY/WX    TMP DP  RH WIND       PRES   REMARKS
TWIN CITIES    MOSUNNY   74  49  41 NW9       30.02F
6HR MIN TEMP:  73; 6HR MAX TEMP:  77;

ST PAUL        SUNNY     73  52  47 N7        30.03S
CRYSTAL        SUNNY     73  49  42 N5        30.01F
BLAINE         SUNNY     73  52  46 N7        30.03S
LAKEVILLE      SUNNY     72  54  53 CALM      30.03S
EDEN PRAIRIE   SUNNY     75  50  41 N3        30.01F
6HR MIN TEMP:  73; 6HR MAX TEMP:  77;

SOUTH ST PAUL  SUNNY     73  49  43 N6        30.02S
LAKE ELMO      FAIR      70  54  56 NE3       30.04S
$$
MNZ001>005-007-008-013>017-022>024-027-028-240100-
   Northwest Minnesota

CITY           SKY/WX    TMP DP  RH WIND       PRES   REMARKS
BEMIDJI        LGT RAIN  55  52  88 NE12      30.09R
HALLOCK        CLOUDY    57  55  94 E9        30.07S
ROSEAU           N/A     55  50  82 CALM      30.10F
WARROAD        PTSUNNY   54  48  82 CALM      30.11S
THIEF RVR FALL RAIN      55  53  93 NE12      30.09F FOG
CROOKSTON      MOSUNNY   63  48  59 E17       30.07R
FOSSTON        CLOUDY    59  46  63 NE13G18   30.08R
DETROIT LAKES  SUNNY     72  46  40 SE5       30.02S
MOORHEAD       SUNNY     73  48  40 SE3       30.00R
PARK RAPIDS    CLOUDY    69  52  54 NE10      30.03F
MAHNOMEN       MOCLDY    64  53  67 NE14G22   30.03R
$$
MNZ006-009>011-018-025>026-240100-
   North Central Minnesota

CITY           SKY/WX    TMP DP  RH WIND       PRES   REMARKS
BAUDETTE       LGT RAIN  54  54 100 NW5       30.10S
FLAG ISLAND    CLOUDY    57  50  77 W5        30.09S
INTL FALLS     CLOUDY    59  51  75 W3        30.07F
6HR MIN TEMP:  59; 6HR MAX TEMP:  65;

WASKISH        LGT RAIN  54  54 100 CALM      30.10
BIG FORK       RAIN      57  54  88 CALM      30.09S
LONGVILLE      CLOUDY    63  52  67 NE6       30.06S
GRAND RAPIDS   RAIN      57  54  89 N6        30.11R
CRANE LAKE     CLOUDY    57  45  62 CALM      30.09S
ORR            CLOUDY    57  50  77 CALM      30.05F
COOK           CLOUDY    59  52  77 CALM      30.08S
WALKER         RAIN      59  52  75 NE10G16   30.06R
$$
MNZ012-019>021-037-240100-
   Northeast Minnesota

CITY           SKY/WX    TMP DP  RH WIND       PRES   REMARKS
DULUTH         MOCLDY    61  51  70 N3        30.06R
6HR MIN TEMP:  61; 6HR MAX TEMP:  67;

ELY            PTCLDY    57  45  62 CALM      30.07S
HIBBING        CLOUDY    59  50  72 N3        30.07S
EVELETH        CLOUDY    60  39  46 NW3       30.09R
DULUTH HARBOR  CLOUDY    66  52  59 CALM      30.06R
TWO HARBORS    MOCLDY    63  55  77 CALM      30.05R
GRAND MARAIS     N/A     62  50  64 SW8       30.05R
G MARAIS ARPRT PTCLDY    55  34  44 N3        30.08S
$$
MNZ029>031-032-039>041-046>048-054>057-064-240100-
   West Central Minnesota

CITY           SKY/WX    TMP DP  RH WIND       PRES   REMARKS
FERGUS FALLS   SUNNY     72  54  53 SE3       29.99F
WHEATON        SUNNY     73  54  49 SE6       30.00F
MORRIS         SUNNY     72  57  60 SE5       30.00S
ALEXANDRIA     SUNNY     72  50  45 S5        30.03F
ELBOW LAKE     FAIR      71  55  57 E3        30.01S
WADENA         SUNNY     72  50  46 CALM      30.02S
GLENWOOD       SUNNY     73  48  40 S3        30.03S
APPLETON       SUNNY     73  55  53 SE3       29.99F
BENSON         SUNNY     72  54  53 S3        30.02S
ORTONVILLE     SUNNY     73  55  53 MISG      29.99F
MADISON        SUNNY     73  59  60 SE6       30.00F
WILLMAR        FAIR      72  57  60 CALM      30.03F
$$
MNZ033>034-036-042>043-049>051-058-059-240100-
   Central Minnesota

CITY           SKY/WX    TMP DP  RH WIND       PRES   REMARKS
ST CLOUD       SUNNY     70  52  52 NE3       30.03S
6HR MIN TEMP:  70; 6HR MAX TEMP:  76;

SAUK CENTRE    FAIR      73  48  40 CALM      30.02F
PAYNESVILLE    SUNNY     73  53  50 S3        30.03S
AITKIN         CLOUDY    63  52  67 N5        30.04S
PINE RIVER     CLOUDY    63  52  67 E3        30.08S
BRAINERD       PTSUNNY   66  52  60 NE7       30.05S
STAPLES        MOSUNNY   70  48  46 E5        30.03S
LONG PRAIRIE   FAIR      70  50  49 CALM      30.03F
LITTLE FALLS   SUNNY     72  50  46 CALM      30.03F
LITCHFIELD     SUNNY     73  55  53 CALM      30.03F
BUFFALO        SUNNY     73  48  41 CALM      30.03F
MAPLE LAKE     SUNNY     73  54  51 CALM      30.03F
HUTCHINSON     CLOUDY    72  59  64 CALM      30.04S
$$
MNZ037-044-045-052-053-240100-
   East Central Minnesota

CITY           SKY/WX    TMP DP  RH WIND       PRES   REMARKS
PRINCETON      MOSUNNY   72  54  53 CALM      30.04S
MORA           SUNNY     64  50  59 CALM      30.06S
CAMBRIDGE      SUNNY     72  54  53 NE3       30.04S
RUSH CITY      SUNNY     68  52  57 CALM      30.04S
MOOSE LAKE     CLOUDY    63  54  72 CALM      30.04S
HINCKLEY       FAIR      68  52  56 CALM      30.05S
CLOQUET        PTSUNNY   63  50  63 CALM      30.06S
MCGREGOR       CLOUDY    63  52  67 N5        30.07R
$$
MNZ071>073-080-081-089-090-097-098-240100-
   Southwest Minnesota

CITY           SKY/WX    TMP DP  RH WIND       PRES   REMARKS
MONTEVIDEO     SUNNY     73  55  53 S5        30.01F
GRANITE FALLS  MOSUNNY   74  58  57 SE5       30.03S
CANBY          PTSUNNY   72  58  60 CALM      30.01F
MARSHALL       PTSUNNY   73  56  54 SE10      30.01F
REDWOOD FALLS  SUNNY     72  56  57 SE3       30.02F
OLIVIA         SUNNY     73  54  49 S3        30.02F
PIPESTONE      MOSUNNY   73  61  64 S5        30.02S
WINDOM         SUNNY     73  54  49 CALM      30.03F
WORTHINGTON    MOSUNNY   71  58  63 S5        30.03F
JACKSON        SUNNY     72  52  49 CALM      30.04F
TRACY          MOSUNNY   74  59  59 S3        30.02F
SLAYTON        SUNNY     70  56  62 E5        30.04F
$$
MNZ065>067-074>077-082>085-091>093-240100-
   South Central Minnesota

CITY           SKY/WX    TMP DP  RH WIND       PRES   REMARKS
MANKATO        SUNNY     74  51  44 N3        30.04F
NEW ULM        PTSUNNY   72  52  49 CALM      30.03S
ST JAMES       MOSUNNY   72  55  56 CALM      30.04F
FAIRMONT       MOSUNNY   71  57  61 SE3       30.04F
GLENCOE        SUNNY     74  58  56 CALM      30.02F
FARIBAULT      SUNNY     72  55  56 CALM      30.04F
OWATONNA       SUNNY     72  57  60 CALM      30.04F
WASECA         SUNNY     72  55  56 CALM      30.05F
ALBERT LEA     SUNNY     73  54  49 CALM      30.04F
$$
MNZ078>079-086>088-094>096-240100-
   Southeast Minnesota

CITY           SKY/WX    TMP DP  RH WIND       PRES   REMARKS
ROCHESTER      CLEAR     69  53  56 N6        30.05F
6HR MIN TEMP:  69; 6HR MAX TEMP:  73;

RED WING       CLEAR     72  52  49 CALM      30.02S
STANTON        SUNNY     72  55  55 CALM      30.02S
DODGE CENTER   SUNNY     70  52  52 NW3       30.05S
WINONA         CLEAR     70  54  56 CALM      30.03S
AUSTIN         SUNNY     72  50  46 NW5       30.04F
PRESTON        CLEAR     68  52  55 NW6       30.05F
$$
ABBREVIATIONS USED IN REMARKS
   TC - TEMPERATURES IN CELSIUS
  WCI - WIND CHILL INDEX
   HX - HEAT INDEX
  VSB - VISIBILITY
$$



USA.gov is the U.S. government's official web portal to all federal, state and local government web resources and services.